Flag for Norway Weather past 2 weeks in Spydeberg, Norway

Now
39 °F

Chilly.


Feels Like: 37 °F
Forecast: 45 / 62 °F
Wind: 3 mph from North

Location: Rygge


UV Index: 0 (Low)

Visibility: N/A


Pressure: 30.15 "Hg

Humidity: 93%

Dew point: 37 °F

Location of SpydebergLocation

Historic Weather in Spydeberg

°F

Spydeberg temperature yesterday

Maximum temperature yesterday: 63 °F (at 1:20 PM)
Minimum temperature yesterday: 32 °F (at 5:50 AM)
Average temperature yesterday: 49 °F

Past Weeks' High & Low Weather Summary

 TemperatureHumidityPressure
High63 °F (Apr 20, 1:20 PM)100% (Apr 6, 4:20 AM)30.33 "Hg (Apr 6, 4:20 AM)
Low30 °F (Apr 16, 2:20 AM)26% (Apr 15, 3:50 PM)29.39 "Hg (Apr 13, 4:50 AM)
Average44 °F78%29.88 "Hg
* Reported Apr 6 4:20 AM — Apr 21 4:50 AM, Spydeberg, Weather by CustomWeather, © 2014

Note: Actual official high and low records may vary slightly from our data, if they occured in-between our weather recording intervals... More about our weather records

Advertising

Historic Weather Conditions — Data for Previous 24 hours

 ConditionsComfort  
Time TempWeatherWind HumidityBarometerVisibility
4:50 AM
Apr 21
39 °FChilly.5 mph93%30.15 "HgN/A
4:20 AM41 °FQuite cool.5 mph87%30.15 "HgN/A
3:50 AM41 °FQuite cool.3 mph87%30.15 "HgN/A
3:20 AM41 °FQuite cool.3 mph93%30.15 "HgN/A
2:50 AM41 °FQuite cool.3 mph93%30.15 "HgN/A
2:20 AM41 °FQuite cool.3 mph93%30.15 "HgN/A
1:50 AM43 °FQuite cool.3 mph87%30.15 "HgN/A
1:20 AM43 °FQuite cool.3 mph93%30.15 "HgN/A
12:50 AM45 °FQuite cool.3 mph87%30.15 "HgN/A
12:20 AM45 °FQuite cool.3 mph87%30.15 "HgN/A
11:50 PM
Apr 20
46 °FCool.3 mph82%30.15 "HgN/A
10:50 PM48 °FClear.3 mph76%30.15 "Hg10 mi
10:20 PM50 °FClear.3 mph76%30.15 "Hg10 mi
9:50 PM52 °FClear.3 mph67%30.15 "Hg10 mi
9:20 PM54 °FSunny.3 mph63%30.15 "Hg10 mi
8:50 PM57 °FSunny.1 mph55%30.15 "Hg10 mi
8:20 PM61 °FSunny.2 mph45%30.15 "Hg10 mi
7:50 PM61 °FSunny.5 mph45%30.12 "Hg10 mi
7:20 PM63 °FSunny.5 mph45%30.12 "Hg10 mi
6:50 PM63 °FPassing clouds.5 mph42%30.15 "HgN/A
6:20 PM63 °FPassing clouds.5 mph45%30.15 "HgN/A
5:50 PM63 °FPassing clouds.6 mph45%30.15 "HgN/A
5:20 PM63 °FPassing clouds.6 mph42%30.15 "HgN/A
4:50 PM63 °FPassing clouds.5 mph42%30.15 "HgN/A
4:20 PM63 °FSunny.5 mph42%30.18 "Hg10 mi
3:50 PM63 °FSunny.7 mph42%30.18 "Hg10 mi
3:20 PM61 °FPassing clouds.7 mph48%30.18 "HgN/A
2:50 PM63 °FPassing clouds.10 mph49%30.18 "HgN/A
2:20 PM63 °FSunny.8 mph49%30.18 "Hg10 mi
1:50 PM63 °FPassing clouds.6 mph49%30.18 "HgN/A
1:20 PM63 °FPartly sunny.5 mph49%30.21 "HgN/A
12:50 PM61 °FSunny.2 mph52%30.21 "Hg10 mi
12:20 PM61 °FSunny.2 mph52%30.21 "Hg10 mi
11:50 AM59 °FSunny.3 mph55%30.21 "Hg10 mi
11:20 AM57 °FPassing clouds.3 mph59%30.21 "HgN/A
10:50 AM55 °FPassing clouds.3 mph59%30.24 "HgN/A
10:20 AM52 °FPassing clouds.3 mph67%30.24 "HgN/A
9:50 AM48 °FPassing clouds.5 mph76%30.24 "HgN/A
9:20 AM46 °FSunny.6 mph76%30.24 "Hg10 mi
8:50 AM43 °FSunny.7 mph87%30.24 "Hg10 mi
8:20 AM39 °FSunny.5 mph93%30.24 "Hg10 mi
7:50 AM37 °FSunny.5 mph93%30.24 "Hg10 mi
7:20 AM34 °FSunny.3 mph100%30.24 "Hg10 mi
6:50 AM34 °FSunny.2 mph93%30.24 "Hg10 mi
6:20 AM32 °FClear.3 mph100%30.24 "Hg10 mi
Weather by CustomWeather, © 2014

See weather overview